Location: Nairn
(57.5833°N, 3.8667°W)
Time: 02:56:44
(UTC+00:00)

Transit 2A - Pass Details

Date: 27 November 2020
Orbit: 598 x 960 km, 66.7° (Epoch: 20 January)

Event Time Altitude Azimuth Distance (km) Brightness Sun altitude
Rises 19:58:42 0° 242° (WSW) 3,609 10.1 -33.2°
Reaches altitude 10° 20:01:22 10° 246° (WSW) 2,639 9.3 -33.6°
Enters shadow 20:06:19 51° 283° (WNW) 1,123 7.0 -34.2°
